Location: Saluda
(35.2377°N, 82.3468°W)
Time: 05:06:06
(UTC+00:00)

Vanguard 2 - Pass Details

Date: 08 October 2022
Orbit: 553 x 2933 km, 32.9° (Epoch: 26 November)

Event Time Altitude Azimuth Distance (km) Brightness Sun altitude
Rises 22:32:50 0° 282° (WNW) 5,717 13.4 5.3°
Reaches altitude 10° 22:36:24 10° 277° (W) 4,978 13.4 4.6°
Maximum altitude 22:50:37 46° 210° (SSW) 3,512 11.3 1.8°
Drops below altitude 10° 23:06:58 10° 145° (SE) 5,636 11.7 -1.5°
Sets 23:11:23 0° 139° (SE) 6,499 11.9 -2.4°
